Regional Weather Roundup
Issued by NWS

Home | Current Version | Previous Version | Graphics & Text | Print | Product List | Glossary Off
Versions: 1 2 3 4 5 6 7 8 9 10 11 12 13 14 15 16 17 18 19 20 21 22 23 24 25 26 27 28 29 30 31 32 33 34 35 36 37 38 39 40 41 42 43 44 45 46 47 48 49 50

000
ASUS43 KTOP 290308
RWRKS

WEATHER ROUNDUP FOR KANSAS
NATIONAL WEATHER SERVICE GOODLAND KS
1000 PM CDT THU JUL 28 2016

NOTE:  "FAIR" INDICATES FEW OR NO CLOUDS BELOW 12,000 FEET WITH NO
SIGNIFICANT WEATHER AND/OR OBSTRUCTIONS TO VISIBILITY.

KSZ001>006-013>018-027>032-041>047-290400-
NORTHWEST KANSAS

CITY           SKY/WX    TMP DP  RH WIND       PRES   REMARKS
GOODLAND       CLOUDY    68  59  73 NE10      30.15R
HAYS           PTCLDY    68  57  68 CALM      30.04R
HILL CITY      MOCLDY    70  63  78 NE5       30.06R
RUSSELL        CLOUDY    69  65  86 S5        30.01R
$$

KSZ061>065-074>080-084>089-290400-
SOUTHWEST KANSAS

CITY           SKY/WX    TMP DP  RH WIND       PRES   REMARKS
DODGE CITY     CLEAR     73  64  73 E17G30    30.03R
ELKHART          N/A     71  60  68 SE7         N/A
GARDEN CITY    CLEAR     76  63  64 NE12      30.03R
GREAT BEND     CLEAR     70  61  73 SE7       30.04R
LIBERAL        PTCLDY    81  59  47 SE8       29.99R
PRATT          CLEAR     69  63  80 E8        30.04S
$$

KSZ066>073-081>083-090>101-290400-
SOUTHEAST KANSAS

CITY           SKY/WX    TMP DP  RH WIND       PRES   REMARKS
CHANUTE        CLEAR     79  75  87 NW5       29.99R
COFFEYVILLE    PTCLDY    81  76  84 NW6       29.96R
HUTCHINSON     CLOUDY    70  67  90 S8        30.01F
MEDICINE LODGE   N/A     72  65  78 NE15G25   30.00
NEWTON         CLOUDY    71  68  90 S12       30.02F
PARSONS        PTCLDY    77  74  90 CALM      29.99R
WICHITA INTL   CLOUDY    70  68  93 N5        30.02F
WICHITA JABRA  CLOUDY    70  69  97 N6        30.03R
WINFIELD       TSTM      71  69  93 NW9       30.08R
$$

KSZ007>012-019>026-033>040-048>060-102>105-290400-
NORTHEAST KANSAS

CITY           SKY/WX    TMP DP  RH WIND       PRES   REMARKS
CONCORDIA      CLOUDY    69  67  93 SW5       30.02R
EMPORIA        LGT RAIN  68  66  93 E8        30.03F
LAWRENCE       CLOUDY    77  69  76 NW5       29.99R
MANHATTAN      LGT RAIN  70  67  90 E14       29.91F
MARYSVILLE     MOCLDY    73  68  83 CALM      29.99R
OLATHE IND     PTCLDY    77  69  76 N6        29.99R
OLATHE EXE     PTCLDY    80  66  62 N5        29.98R
SALINA         CLOUDY    71  65  81 SE7       30.01R
TOPEKA BILLARD LGT RAIN  70  65  84 W7        30.02R
TOPEKA FORBES  LGT RAIN  71  67  87 W13G25    30.02S
$$




USA.gov is the U.S. government's official web portal to all federal, state and local government web resources and services.